[[[{"header":{"parameterUnit":"kt","parameterCategory":2,"dx":1,"dy":1,"la1":30.253999710083008,"la2":30.299108505249023,"lo1":-89.0895004272461,"lo2":-89.04439544677734,"nx":28,"ny":28,"refTime":"2022-09-19T21:00:00:Z","depth":0,"parameterNumber":1,"parameterNumberName":"U-component_of_WINDS"},"data":[1.4604,1.4558,1.4533,1.4468,1.4434,1.4385,1.4358,1.4321,1.4284,1.4221,1.4179,1.4146,1.4096,1.4038,1.399,1.3975,1.3957,1.3961,1.3943,1.395,1.3949,1.3948,1.3958,1.3958,1.3958,1.394,1.3939,1.3939,1.4615,1.4581,1.4539,1.4481,1.4445,1.4425,1.4376,1.4346,1.4302,1.4255,1.4212,1.4153,1.4102,1.4049,1.3994,1.397,1.3956,1.3957,1.3957,1.395,1.3956,1.3967,1.3969,1.3969,1.3969,1.3969,1.3969,1.3969,1.4628,1.4602,1.4551,1.4505,1.4467,1.4428,1.4397,1.4357,1.4314,1.4255,1.423,1.4177,1.4124,1.4042,1.4007,1.3964,1.3957,1.3949,1.3946,1.3944,1.3947,1.3978,1.3953,1.3953,1.3953,1.3953,1.3953,0,1.4629,1.4609,1.4566,1.4516,1.448,1.4438,1.4394,1.4374,1.4318,1.4284,1.4232,1.4197,1.4127,1.4074,1.4015,1.3979,1.3951,1.3945,1.3938,1.395,1.397,1.3959,1.3971,1.3945,1.3945,1.3945,1.3944,1.3944,1.4639,1.4611,1.4544,1.4517,1.4486,1.4444,1.4412,1.4365,1.4333,1.427,1.4248,1.4194,1.4148,1.4067,1.4016,1.3963,1.3948,1.3942,1.3939,1.3953,1.3947,1.3949,1.3946,1.3942,1.3943,1.3943,1.3943,0,1.4648,1.4603,1.455,1.4485,1.4467,1.444,1.4382,1.4352,1.4315,1.4268,1.4254,1.4195,1.4143,1.4093,1.4023,1.3998,1.3949,1.3936,1.3968,1.3963,1.3952,1.3953,1.3924,1.3917,1.3917,1.3917,1.3918,0,1.4638,1.4602,1.4538,1.4509,1.4467,1.442,1.438,1.4343,1.4296,1.4259,1.4221,1.4186,1.4126,1.4084,1.4047,1.3998,1.3984,1.3962,1.3952,1.3965,1.3967,1.3944,1.3944,1.3932,1.3932,1.3932,1.3932,0,1.4656,1.4578,1.4531,1.4506,1.4431,1.4409,1.4377,1.4322,1.4291,1.4242,1.422,1.4165,1.4135,1.4093,1.4046,1.4046,1.3984,1.3975,1.3961,1.3962,1.3948,1.3949,1.3938,1.3932,1.3932,1.3932,1.3932,0,1.464,1.4594,1.4533,1.4469,1.445,1.4419,1.4363,1.4324,1.4269,1.4244,1.4204,1.4172,1.4125,1.4119,1.4053,1.4068,1.4039,1.4013,1.4011,1.4003,1.3998,1.3997,1.3992,1.3989,1.3997,1.3998,1.3998,0,1.4672,1.4598,1.4557,1.4499,1.4458,1.4418,1.4382,1.4334,1.4298,1.4256,1.4215,1.4166,1.4151,1.4129,1.4103,1.4057,1.4039,1.4058,1.3995,1.3994,1.4012,1.4007,1.4018,1.3999,1.4004,1.4004,1.4003,0,1.4691,1.46,1.4593,1.4561,1.4492,1.4456,1.4414,1.4356,1.4331,1.4281,1.4243,1.4173,1.4159,1.4122,1.4088,1.4064,1.405,1.4051,1.4049,1.4052,1.4003,1.4015,1.4012,1.4033,1.4032,1.4031,1.4008,0,1.4678,1.4634,1.4612,1.4543,1.4508,1.4468,1.4415,1.4385,1.4357,1.4319,1.4263,1.4207,1.4145,1.4128,1.4099,1.406,1.4058,1.4042,1.4031,1.4029,1.402,1.4016,1.405,1.4049,1.4049,1.4048,0,0,1.4719,1.4655,1.461,1.4568,1.4535,1.4493,1.4455,1.4417,1.4342,1.4319,1.4313,1.4206,1.416,1.4097,1.4092,1.4066,1.4054,1.4056,1.4031,1.4029,1.4027,1.4019,1.4016,1.4047,1.4047,1.4047,1.4047,0,1.4703,1.4662,1.4626,1.4586,1.4524,1.4486,1.4477,1.4408,1.4381,1.4325,1.4289,1.4248,1.4162,1.4119,1.4085,1.4063,1.4036,1.4048,1.4055,1.4027,1.4026,1.4025,1.4017,1.4015,1.4045,1.4045,1.4045,0,1.4711,1.4662,1.4639,1.4563,1.4521,1.4478,1.4456,1.4411,1.4378,1.4329,1.4274,1.4235,1.4172,1.4119,1.4092,1.4085,1.4024,1.4032,1.4034,1.4029,1.3999,1.3999,1.3998,1.401,1.401,1.401,0,0,1.4704,1.4663,1.4593,1.4555,1.4532,1.4473,1.4444,1.4413,1.4359,1.4337,1.4286,1.4233,1.4183,1.415,1.41,1.4049,1.4031,1.4031,1.4032,1.4034,1.403,1.4001,1.4,1.401,1.401,1.401,0,0,1.47,1.4618,1.4601,1.455,1.4501,1.4427,1.4405,1.438,1.4329,1.4328,1.427,1.4253,1.4202,1.4164,1.4177,1.4095,1.4085,1.4081,1.4121,1.4122,1.4124,1.4133,1.4143,0,0,0,0,0,1.4656,1.4629,1.4614,1.4597,1.4498,1.4436,1.4423,1.4377,1.4372,1.4356,1.4309,1.4282,1.416,1.4169,1.4152,1.4138,1.4016,1.4015,1.4014,1.4053,1.4055,1.4057,0,0,0,0,0,0,1.4649,1.4629,1.4614,1.4541,1.4518,1.4437,1.4419,1.4405,1.4373,1.4369,1.4292,1.4279,1.4237,1.4175,1.416,1.4148,1.4147,1.4016,1.4015,1.4014,1.4054,1.4056,1.4057,0,0,0,0,0,1.4643,1.4627,1.4481,1.454,1.4521,1.4453,1.4419,1.4408,1.4381,1.4309,1.4296,1.4349,1.4238,1.4222,1.4166,1.4155,1.4157,1.4152,1.4015,1.4014,1.4014,1.4055,0,0,0,0,0,0,1.4639,1.4615,1.4476,1.4468,1.4547,1.4456,1.4441,1.441,1.4322,1.4309,1.4363,1.4361,1.4238,1.4226,1.4214,1.4161,1.4165,1.416,1.4156,1.4015,1.4014,1.4014,0,0,0,0,0,0,1.4624,1.4609,1.4472,1.4483,1.4476,1.446,1.4446,1.439,1.4322,1.4382,1.4377,1.4363,1.4255,1.4228,1.4219,1.4134,1.4171,1.4166,1.4162,1.416,1.4014,1.4014,0,0,0,0,0,0,1.4617,1.4604,1.4485,1.4479,1.4473,1.4381,1.4409,1.431,1.4335,1.4386,1.4335,1.4336,1.4258,1.4247,1.4223,1.4142,1.4136,1.4171,1.4167,1.4165,1.4163,0,0,0,0,0,0,0,1.4611,1.4707,1.4523,1.4476,1.4471,1.4396,1.4394,1.4391,1.4335,1.4335,1.4335,1.4336,1.42,1.4195,1.4189,1.4148,0,0,1.4171,1.4169,0,0,0,0,0,0,0,0,1.4711,1.4708,1.4523,1.4521,1.452,1.4395,1.4394,1.4392,1.4335,1.4335,1.4335,1.4335,1.4199,1.4194,1.419,0,0,0,0,0,0,0,0,0,0,0,0,0,0,0,1.4523,1.4521,0,1.4395,1.4394,1.4392,1.4335,1.4335,1.4335,1.4335,1.4197,1.4194,1.419,0,0,0,0,0,0,0,0,0,0,0,0,0,0,0,0,0,0,0,0,0,0,0,0,0,0,0,0,0,0,0,0,0,0,0,0,0,0,0,0,0,0,0,0,0,0,0,0,0,0,0,0,0,0,0,0,0,0,0,0,0,0,0,0,0,0,0,0,0]}],[{"header":{"parameterUnit":"kt","parameterCategory":2,"dx":1,"dy":1,"la1":30.253999710083008,"la2":30.299108505249023,"lo1":-89.0895004272461,"lo2":-89.04439544677734,"nx":28,"ny":28,"refTime":"2022-09-19T21:00:00:Z","depth":0,"parameterNumber":2,"parameterNumberName":"V-component_of_WINDS"},"data":[-6.0041,-6.019,-6.0215,-6.0396,-6.0448,-6.0576,-6.0628,-6.0699,-6.0761,-6.0914,-6.1007,-6.1044,-6.1113,-6.1227,-6.1327,-6.1341,-6.1382,-6.1419,-6.1429,-6.1245,-6.1221,-6.1198,-6.1166,-6.1427,-6.1427,-6.1617,-6.1619,-6.162,-5.9906,-5.996,-6.0063,-6.0178,-6.0266,-6.0246,-6.0335,-6.041,-6.0524,-6.06,-6.0692,-6.0828,-6.0937,-6.0995,-6.1103,-6.1172,-6.1168,-6.12,-6.1196,-6.1208,-6.1012,-6.0977,-6.1202,-6.1202,-6.1202,-6.1202,-6.1202,-6.1202,-5.9669,-5.9758,-5.9841,-5.9953,-6.0017,-6.0094,-6.0181,-6.0226,-6.0325,-6.0443,-6.0449,-6.0578,-6.0657,-6.0798,-6.085,-6.095,-6.0918,-6.0959,-6.097,-6.0981,-6.0991,-6.0717,-6.0968,-6.0968,-6.0967,-6.0967,-6.0966,0,-5.9503,-5.9517,-5.9616,-5.9724,-5.9806,-5.989,-5.9971,-6.0025,-6.006,-6.014,-6.0258,-6.0329,-6.0469,-6.0581,-6.0687,-6.0732,-6.0718,-6.0717,-6.0746,-6.0747,-6.0735,-6.0745,-6.0426,-6.071,-6.0708,-6.0706,-6.0705,-6.0704,-5.9267,-5.9366,-5.9464,-5.9531,-5.9581,-5.9687,-5.9755,-5.9778,-5.9849,-5.995,-6.0026,-6.0138,-6.023,-6.0412,-6.046,-6.0564,-6.0558,-6.0664,-6.0573,-6.057,-6.0562,-6.0557,-6.0568,-6.0682,-6.0685,-6.0687,-6.0689,0,-5.9132,-5.9169,-5.933,-5.9416,-5.9441,-5.9543,-5.9616,-5.9704,-5.9736,-5.9861,-5.9892,-5.9942,-6.0056,-6.0087,-6.0221,-6.0234,-6.0403,-6.0393,-6.0377,-6.0377,-6.0477,-6.0468,-6.0792,-6.0837,-6.0564,-6.0566,-6.0568,0,-5.8946,-5.9075,-5.9123,-5.9214,-5.9358,-5.9377,-5.9519,-5.956,-5.9629,-5.9727,-5.9716,-5.9808,-5.9832,-5.9929,-5.9948,-6.0091,-6.0115,-6.0134,-6.0137,-6.0136,-6.0134,-6.0174,-6.0162,-6.0139,-6.0137,-6.0136,-6.0134,0,-5.8732,-5.8907,-5.9056,-5.9101,-5.9205,-5.9274,-5.932,-5.9396,-5.9462,-5.9551,-5.9594,-5.9696,-5.9752,-5.983,-5.9854,-5.9791,-6.0028,-5.9947,-6.0047,-6.0047,-6.0099,-6.0096,-6.0374,-6.0132,-6.0132,-6.0131,-6.013,0,-5.8588,-5.868,-5.8888,-5.8974,-5.9019,-5.9116,-5.9219,-5.9309,-5.939,-5.9408,-5.9478,-5.9473,-5.9599,-5.9517,-5.9691,-5.9603,-5.9659,-5.9688,-5.9696,-5.971,-5.9617,-5.9772,-6.0033,-6.0062,-5.9722,-5.9718,-5.9715,0,-5.8335,-5.8554,-5.8573,-5.8769,-5.8875,-5.8856,-5.8963,-5.9035,-5.9069,-5.9162,-5.9198,-5.9304,-5.9248,-5.9286,-5.9367,-5.9409,-5.9522,-5.9394,-5.9528,-5.9533,-5.951,-5.975,-5.9782,-5.9972,-5.9672,-5.9677,-5.968,0,-5.8143,-5.8268,-5.8301,-5.8355,-5.8453,-5.8541,-5.8663,-5.8773,-5.8835,-5.8915,-5.9019,-5.9166,-5.9132,-5.9193,-5.9199,-5.9283,-5.9446,-5.9233,-5.9235,-5.9272,-5.9652,-5.9682,-5.9714,-5.9431,-5.9437,-5.9441,-5.9646,0,-5.792,-5.8033,-5.8125,-5.8241,-5.8313,-5.8437,-5.8471,-5.8542,-5.8542,-5.8574,-5.8726,-5.879,-5.89,-5.8942,-5.8942,-5.9124,-5.9098,-5.9059,-5.8981,-5.9137,-5.9206,-5.9234,-5.8877,-5.8875,-5.8873,-5.8872,0,0,-5.7669,-5.7832,-5.7848,-5.7968,-5.803,-5.8008,-5.8137,-5.8194,-5.831,-5.8353,-5.831,-5.8528,-5.8582,-5.8762,-5.8813,-5.8856,-5.8892,-5.8836,-5.9062,-5.9083,-5.9103,-5.9176,-5.9204,-5.8868,-5.8868,-5.8867,-5.8866,0,-5.7595,-5.7653,-5.7781,-5.7841,-5.7931,-5.7959,-5.799,-5.8074,-5.81,-5.8248,-5.8227,-5.8321,-5.8493,-5.8554,-5.8608,-5.8815,-5.8793,-5.8845,-5.8947,-5.9043,-5.9067,-5.9088,-5.9163,-5.919,-5.8862,-5.8862,-5.8863,0,-5.7414,-5.7477,-5.7542,-5.7681,-5.7739,-5.7847,-5.7774,-5.789,-5.7971,-5.7938,-5.8085,-5.8125,-5.8208,-5.8373,-5.8448,-5.8411,-5.8701,-5.8614,-5.8626,-5.8635,-5.8729,-5.8757,-5.8782,-5.8452,-5.845,-5.8449,0,0,-5.7345,-5.745,-5.7523,-5.7667,-5.7706,-5.7748,-5.7808,-5.7814,-5.789,-5.7921,-5.7972,-5.8046,-5.8146,-5.8212,-5.8307,-5.8483,-5.8503,-5.8562,-5.8581,-5.8597,-5.8615,-5.8713,-5.8741,-5.8443,-5.8443,-5.8443,0,0,-5.7311,-5.7403,-5.739,-5.7561,-5.7635,-5.7716,-5.7803,-5.7788,-5.7877,-5.7866,-5.788,-5.79,-5.8055,-5.8094,-5.8012,-5.828,-5.8203,-5.8223,-5.8249,-5.8274,-5.8293,-5.8281,-5.7946,0,0,0,0,0,-5.7253,-5.7392,-5.7379,-5.7412,-5.7587,-5.7724,-5.7746,-5.7762,-5.7707,-5.7776,-5.7816,-5.7788,-5.8053,-5.7981,-5.8014,-5.8105,-5.8368,-5.8381,-5.8394,-5.8469,-5.8495,-5.8517,0,0,0,0,0,0,-5.7266,-5.7307,-5.7375,-5.7462,-5.7501,-5.7719,-5.763,-5.7638,-5.77,-5.7693,-5.7781,-5.779,-5.7805,-5.7966,-5.7995,-5.8081,-5.7936,-5.8373,-5.8385,-5.8395,-5.8478,-5.8499,-5.8517,0,0,0,0,0,-5.7277,-5.731,-5.7586,-5.746,-5.7494,-5.7548,-5.7625,-5.7631,-5.7679,-5.7741,-5.775,-5.7686,-5.7807,-5.7832,-5.7983,-5.8068,-5.7916,-5.7927,-5.8381,-5.8389,-5.8397,-5.8489,0,0,0,0,0,0,-5.7285,-5.7316,-5.7593,-5.7604,-5.7408,-5.7536,-5.7557,-5.7625,-5.7724,-5.7734,-5.7646,-5.7639,-5.781,-5.7829,-5.7849,-5.8062,-5.79,-5.7911,-5.7918,-5.8387,-5.8394,-5.8401,0,0,0,0,0,0,-5.7298,-5.7326,-5.7599,-5.7533,-5.7537,-5.7525,-5.7544,-5.7673,-5.7725,-5.7622,-5.762,-5.7642,-5.778,-5.7828,-5.7843,-5.8044,-5.7888,-5.7898,-5.7905,-5.791,-5.8393,-5.8399,0,0,0,0,0,0,-5.731,-5.7333,-5.753,-5.7533,-5.7536,-5.766,-5.7639,-5.7817,-5.7671,-5.7618,-5.7658,-5.7652,-5.7779,-5.7795,-5.7839,-5.8034,-5.8041,-5.7888,-5.7895,-5.79,-5.7903,0,0,0,0,0,0,0,-5.732,-5.716,-5.7529,-5.7533,-5.7535,-5.7705,-5.7708,-5.7711,-5.7669,-5.7664,-5.7659,-5.7654,-5.7828,-5.7839,-5.7851,-5.8025,0,0,-5.7887,-5.7892,0,0,0,0,0,0,0,0,-5.715,-5.7157,-5.7529,-5.7531,-5.7533,-5.7706,-5.7708,-5.7711,-5.7668,-5.7664,-5.766,-5.7656,-5.7831,-5.784,-5.785,0,0,0,0,0,0,0,0,0,0,0,0,0,0,0,-5.7529,-5.7531,0,-5.7706,-5.7708,-5.771,-5.7668,-5.7664,-5.7661,-5.7658,-5.7833,-5.7841,-5.7849,0,0,0,0,0,0,0,0,0,0,0,0,0,0,0,0,0,0,0,0,0,0,0,0,0,0,0,0,0,0,0,0,0,0,0,0,0,0,0,0,0,0,0,0,0,0,0,0,0,0,0,0,0,0,0,0,0,0,0,0,0,0,0,0,0,0,0,0,0]}]]]